Tracking 33195 objects as of 8-Feb-2026
HD Live streaming from Space Station
objects crossing your sky now

ONEWEB-0323

Track ONEWEB-0323 now!
10-day predictions
ONEWEB-0323 is classified as:


NORAD ID: 49106
Int'l Code: 2021-075AH
Perigee: 1,219.0 km
Apogee: 1,222.7 km
Inclination: 87.9 °
Period: 109.7 minutes
Semi major axis: 7591 km
RCS: Unknown
Launch date: August 21, 2021
Source: United Kingdom (UK)
Launch site: TYURATAM MISSILE AND SPACE COMPLEX (TTMTR)
Your satellite tracking list
Your tracking list is empty




NASA's NSSDC Master Catalog

Two Line Element Set (TLE):
1 49106U 21075AH  26038.97125935 -.00000257  00000-0 -74867-3 0  9996
2 49106  87.8956  16.2929 0002430  75.4258 284.7140 13.12443966217605
Source of the keplerian elements: AFSPC